Regional Weather Roundup
Issued by NWS

Home | Current Version | Previous Version | Graphics & Text | Print | Product List | Glossary On
Versions: 1 2 3 4 5 6 7 8 9 10 11 12 13 14 15 16 17 18 19 20 21 22 23 24 25 26 27 28 29 30 31 32 33 34 35 36 37 38 39 40 41 42 43 44 45 46 47 48 49 50
000
ASUS45 KCYS 210610
RWRWY

WYOMING REGIONAL WEATHER ROUNDUP
NATIONAL WEATHER SERVICE CHEYENNE WY
1200 AM MDT SAT OCT 21 2017

NOTE:  "FAIR" INDICATES FEW OR NO CLOUDS BELOW 12,000 FEET
WITH NO SIGNIFICANT WEATHER AND/OR OBSTRUCTIONS TO VISIBILITY.

WYZ001-210700-
YELLOWSTONE NATIONAL PARK

CITY           SKY/WX    TMP DP  RH WIND       PRES   REMARKS
LK YELLOWSTONE   N/A     25  21  85 VRB7G18   29.83R WCI  17
6HR MIN TEMP:  24; 6HR MAX TEMP:  28; 6HR PCP:  0.03;

W YELLOWSTONE  NOT AVBL

$$
WYZ002>013-054>058-071-098>099-210700-
NORTHERN WYOMING

CITY           SKY/WX    TMP DP  RH WIND       PRES   REMARKS
JACKSON        CLOUDY    29  25  85 S6G18     29.89R FOG     WCI  23
CODY           FAIR      39  23  52 W10G20    29.73R WCI  32
GREYBULL       FAIR      43  22  43 W13       29.69R
6HR MIN TEMP:  43; 6HR MAX TEMP:  59;

WORLAND        FAIR      44  24  45 N6        29.71R
6HR MIN TEMP:  39; 6HR MAX TEMP:  64;

SHERIDAN       FAIR      47  22  37 NW29G41   29.64R
6HR MIN TEMP:  46; 6HR MAX TEMP:  63;

BUFFALO        FAIR      45  18  34 N24G43    29.61R
6HR MIN TEMP:  44; 6HR MAX TEMP:  66;

GILLETTE       FAIR      45  25  45 NW16G33   29.63R
6HR MIN TEMP:  45; 6HR MAX TEMP:  69;

HULETT         FAIR      52  34  50 W10G16    29.58R
NEWCASTLE      MOCLDY    54  32  43 NW23G35   29.58R

$$
WYZ014>020-022>026-101>103-210700-
CENTRAL WYOMING

CITY           SKY/WX    TMP DP  RH WIND       PRES   REMARKS
BIG PINEY      FAIR      24  19  81 CALM      29.89R
6HR MIN TEMP:  22; 6HR MAX TEMP:  38;

PINEDALE       CLOUDY    28  23  80 CALM      29.88R
DUBOIS         CLOUDY    28  21  74 NW9G24    29.80R WCI  20
LANDER         FAIR      39  14  36 W14       29.77R WCI  31
6HR MIN TEMP:  36; 6HR MAX TEMP:  52;

RIVERTON       FAIR      39  19  44 W21       29.76R WCI  29
6HR MIN TEMP:  36; 6HR MAX TEMP:  54;

CASPER         FAIR      43  14  31 SW14      29.72R
6HR MIN TEMP:  43; 6HR MAX TEMP:  64;

DOUGLAS        FAIR      48  26  42 W28G38    29.64R
6HR MIN TEMP:  48; 6HR MAX TEMP:  68;


$$
WYZ021-027>030-104>119-210700-
SOUTHERN WYOMING

CITY           SKY/WX    TMP DP  RH WIND       PRES   REMARKS
EVANSTON       FAIR      27  20  75 W15       29.96R WCI  15
6HR MIN TEMP:  26; 6HR MAX TEMP:  34;

FORT BRIDGER   FAIR      29  22  76 W13       29.97R WCI  18
ROCK SPRINGS   FAIR      31  19  61 W21G26    29.92R WCI  18
6HR MIN TEMP:  30; 6HR MAX TEMP:  39;

DIXON          CLOUDY    31  29  90 CALM      29.95R
RAWLINS        FAIR      34  18  52 W20G26    29.86R WCI  23
6HR MIN TEMP:  34; 6HR MAX TEMP:  49; 6HR PCP:  0.04;

SARATOGA       FAIR      32  27  80 SW12      29.89R WCI  23
LARAMIE        CLOUDY    33  29  85 E3        29.77R
6HR MIN TEMP:  32; 6HR MAX TEMP:  56; 6HR PCP:  0.03;

CHEYENNE       FAIR      41  29  62 NW33G51   29.64R
6HR MIN TEMP:  41; 6HR MAX TEMP:  65;

TORRINGTON     FAIR      52  34  50 W20G28    29.61R
6HR MIN TEMP:  52; 6HR MAX TEMP:  70; 6HR PCP: TRACE;

PINE BLUFFS    FAIR      46  32  57 MISG      29.63R

$$



USA.gov is the U.S. government's official web portal to all federal, state and local government web resources and services.